| time (UTC) | temp C | wind direction | speed KPH | gust KPH | rain 1hr cm | rain 24hr cm | rain mn cm | humidity % | barometer mb |
| 20260507170108 | 20 | 171 | 0.0 | 3.2 | 0.00 | 0.00 | 0.00 | 56 | 1018.5 |
| 20260507165608 | 20 | 171 | 0.0 | 4.8 | 0.00 | 0.00 | 0.00 | 56 | 1018.3 |
| 20260507165330 | 20 | 171 | 3.2 | 4.8 | 0.00 | 0.00 | 0.00 | 55 | 1018.3 |
| 20260507164609 | 20 | 171 | 0.0 | 0.0 | 0.00 | 0.00 | 0.00 | 55 | 1018.3 |
| 20260507164333 | 21 | 171 | 0.0 | 0.0 | 0.00 | 0.00 | 0.00 | 55 | 1018.4 |
| 20260507163606 | 21 | 171 | 0.0 | 0.0 | 0.00 | 0.00 | 0.00 | 54 | 1018.2 |
| 20260507163107 | 21 | 171 | 0.0 | 3.2 | 0.00 | 0.00 | 0.00 | 54 | 1018.2 |
| 20260507162608 | 21 | 171 | 1.6 | 4.8 | 0.00 | 0.00 | 0.00 | 53 | 1018.2 |
| 20260507162107 | 21 | 171 | 1.6 | 4.8 | 0.00 | 0.00 | 0.00 | 52 | 1018.2 |
| 20260507161829 | 21 | 171 | 1.6 | 4.8 | 0.00 | 0.00 | 0.00 | 51 | 1018.3 |
| 20260507161108 | 21 | 171 | 3.2 | 4.8 | 0.00 | 0.00 | 0.00 | 50 | 1018.3 |
| 20260507160608 | 21 | 169 | 0.0 | 4.8 | 0.00 | 0.00 | 0.00 | 48 | 1018.2 |
| 20260507160329 | 22 | 169 | 3.2 | 4.8 | 0.00 | 0.00 | 0.00 | 48 | 1018.4 |
| 20260507155607 | 22 | 175 | 3.2 | 4.8 | 0.00 | 0.00 | 0.00 | 46 | 1018.2 |
| 20260507155104 | 22 | 192 | 0.0 | 4.8 | 0.00 | 0.00 | 0.00 | 43 | 1018.3 |
| 20260507154606 | 21 | 0 | 0.0 | 3.2 | 0.00 | 0.00 | 0.00 | 42 | 1018.1 |
| 20260507154107 | 21 | 252 | 0.0 | 3.2 | 0.00 | 0.00 | 0.00 | 43 | 1018.1 |
| 20260507153606 | 21 | 252 | 0.0 | 4.8 | 0.00 | 0.00 | 0.00 | 45 | 1018.0 |
| 20260507153108 | 21 | 252 | 1.6 | 8.0 | 0.00 | 0.00 | 0.00 | 46 | 1018.1 |
| 20260507152605 | 21 | 210 | 1.6 | 8.0 | 0.00 | 0.00 | 0.00 | 47 | 1018.1 |
| 20260507152106 | 21 | 195 | 6.4 | 8.0 | 0.00 | 0.00 | 0.00 | 48 | 1018.1 |
| 20260507151607 | 22 | 221 | 3.2 | 8.0 | 0.00 | 0.00 | 0.00 | 48 | 1018.2 |
| 20260507151106 | 22 | 161 | 4.8 | 8.0 | 0.00 | 0.00 | 0.00 | 48 | 1018.3 |
| 20260507150604 | 22 | 183 | 3.2 | 9.7 | 0.00 | 0.00 | 0.00 | 47 | 1018.3 |
| 20260507150105 | 22 | 196 | 3.2 | 9.7 | 0.00 | 0.00 | 0.00 | 45 | 1018.2 |
| 20260507145605 | 21 | 207 | 6.4 | 9.7 | 0.00 | 0.00 | 0.00 | 43 | 1018.3 |
| 20260507145106 | 21 | 192 | 6.4 | 9.7 | 0.00 | 0.00 | 0.00 | 43 | 1018.2 |
| 20260507144833 | 22 | 243 | 4.8 | 9.7 | 0.00 | 0.00 | 0.00 | 42 | 1018.1 |
| 20260507144331 | 22 | 175 | 6.4 | 11.3 | 0.00 | 0.00 | 0.00 | 42 | 1018.2 |
| 20260507143604 | 22 | 228 | 8.0 | 11.3 | 0.00 | 0.00 | 0.00 | 42 | 1018.3 |
| 20260507143106 | 22 | 0 | 6.4 | 11.3 | 0.00 | 0.00 | 0.00 | 44 | 1018.2 |
| 20260507142605 | 22 | 220 | 3.2 | 11.3 | 0.00 | 0.00 | 0.00 | 45 | 1018.1 |
| 20260507142330 | 21 | 238 | 6.4 | 11.3 | 0.00 | 0.00 | 0.00 | 45 | 1018.2 |
| 20260507141606 | 21 | 182 | 4.8 | 11.3 | 0.00 | 0.00 | 0.00 | 45 | 1018.3 |
| 20260507141104 | 21 | 0 | 8.0 | 14.5 | 0.00 | 0.00 | 0.00 | 46 | 1018.3 |
| 20260507140605 | 21 | 257 | 4.8 | 14.5 | 0.00 | 0.00 | 0.00 | 50 | 1018.3 |
| 20260507140104 | 21 | 235 | 6.4 | 11.3 | 0.00 | 0.00 | 0.00 | 51 | 1018.2 |
| 20260507135826 | 20 | 233 | 6.4 | 11.3 | 0.00 | 0.00 | 0.00 | 52 | 1018.2 |
| 20260507135105 | 21 | 0 | 4.8 | 11.3 | 0.00 | 0.00 | 0.00 | 54 | 1018.3 |
| 20260507134604 | 21 | 0 | 4.8 | 16.1 | 0.00 | 0.00 | 0.00 | 55 | 1018.4 |
| 20260507134106 | 21 | 223 | 9.7 | 16.1 | 0.00 | 0.00 | 0.00 | 54 | 1018.5 |
| 20260507133604 | 21 | 190 | 4.8 | 11.3 | 0.00 | 0.00 | 0.00 | 55 | 1018.6 |
| 20260507133103 | 21 | 200 | 8.0 | 14.5 | 0.00 | 0.00 | 0.00 | 53 | 1018.6 |
| 20260507132603 | 21 | 214 | 8.0 | 16.1 | 0.00 | 0.00 | 0.00 | 51 | 1018.8 |
| 20260507132104 | 22 | 0 | 9.7 | 16.1 | 0.00 | 0.00 | 0.00 | 50 | 1018.7 |
| 20260507131604 | 22 | 0 | 4.8 | 16.1 | 0.00 | 0.00 | 0.00 | 50 | 1018.5 |
| 20260507131103 | 22 | 257 | 9.7 | 16.1 | 0.00 | 0.00 | 0.00 | 50 | 1018.3 |
| 20260507130605 | 22 | 166 | 6.4 | 14.5 | 0.00 | 0.00 | 0.00 | 50 | 1018.2 |
| 20260507125604 | 22 | 207 | 9.7 | 16.1 | 0.00 | 0.00 | 0.00 | 51 | 1018.6 |
| 20260507125102 | 22 | 0 | 9.7 | 16.1 | 0.00 | 0.00 | 0.00 | 52 | 1018.7 |
| 20260507124603 | 22 | 0 | 6.4 | 14.5 | 0.00 | 0.00 | 0.00 | 52 | 1018.8 |
| 20260507124102 | 22 | 0 | 8.0 | 14.5 | 0.00 | 0.00 | 0.00 | 51 | 1018.8 |
| 20260507123603 | 22 | 0 | 6.4 | 17.7 | 0.00 | 0.00 | 0.00 | 52 | 1018.9 |
| 20260507123103 | 22 | 185 | 9.7 | 17.7 | 0.00 | 0.00 | 0.00 | 50 | 1019.1 |
| 20260507122603 | 22 | 154 | 4.8 | 14.5 | 0.00 | 0.00 | 0.00 | 50 | 1019.0 |
| 20260507122104 | 22 | 172 | 3.2 | 16.1 | 0.00 | 0.00 | 0.00 | 51 | 1019.1 |
| 20260507122053 | 22 | 0 | 6.4 | 16.1 | 0.00 | 0.00 | 0.00 | 51 | 1018.9 |
| 20260507121101 | 22 | 192 | 9.7 | 16.1 | 0.00 | 0.00 | 0.00 | 51 | 1019.0 |
| 20260507120826 | 22 | 199 | 8.0 | 19.3 | 0.00 | 0.00 | 0.00 | 53 | 1019.0 |
| 20260507120103 | 22 | 0 | 8.0 | 19.3 | 0.00 | 0.00 | 0.00 | 53 | 1019.1 |
| 20260507120052 | 22 | 0 | 9.7 | 17.7 | 0.00 | 0.00 | 0.00 | 54 | 1019.0 |
| 20260507115103 | 22 | 220 | 8.0 | 19.3 | 0.00 | 0.00 | 0.00 | 54 | 1019.0 |
| 20260507114601 | 21 | 0 | 6.4 | 19.3 | 0.00 | 0.00 | 0.00 | 54 | 1018.9 |
| 20260507114101 | 21 | 0 | 6.4 | 17.7 | 0.00 | 0.00 | 0.00 | 53 | 1018.8 |
| 20260507113823 | 21 | 241 | 9.7 | 17.7 | 0.00 | 0.00 | 0.00 | 52 | 1018.8 |
| 20260507113100 | 21 | 151 | 6.4 | 17.7 | 0.00 | 0.00 | 0.00 | 51 | 1018.8 |
| 20260507112602 | 22 | 0 | 9.7 | 17.7 | 0.00 | 0.00 | 0.00 | 51 | 1018.8 |
| 20260507112334 | 22 | 0 | 9.7 | 17.7 | 0.00 | 0.00 | 0.00 | 51 | 1018.8 |
| 20260507111602 | 21 | 0 | 8.0 | 17.7 | 0.00 | 0.00 | 0.00 | 51 | 1018.8 |
| 20260507111100 | 21 | 0 | 9.7 | 17.7 | 0.00 | 0.00 | 0.00 | 52 | 1018.8 |
| 20260507110601 | 21 | 0 | 8.0 | 19.3 | 0.00 | 0.00 | 0.00 | 52 | 1018.7 |
| 20260507110100 | 21 | 0 | 12.9 | 20.9 | 0.00 | 0.00 | 0.00 | 51 | 1018.8 |
| 20260507105600 | 21 | 178 | 11.3 | 20.9 | 0.00 | 0.00 | 0.00 | 50 | 1018.7 |
| 20260507105100 | 21 | 0 | 14.5 | 20.9 | 0.00 | 0.00 | 0.00 | 49 | 1018.8 |
| 20260507104600 | 21 | 0 | 11.3 | 20.9 | 0.00 | 0.00 | 0.00 | 51 | 1018.8 |
| 20260507104100 | 22 | 0 | 11.3 | 17.7 | 0.00 | 0.00 | 0.00 | 50 | 1018.8 |
| 20260507103600 | 22 | 0 | 4.8 | 16.1 | 0.00 | 0.00 | 0.00 | 51 | 1018.8 |
| 20260507103059 | 22 | 0 | 9.7 | 16.1 | 0.00 | 0.00 | 0.00 | 51 | 1018.6 |
| 20260507102559 | 21 | 186 | 8.0 | 17.7 | 0.00 | 0.00 | 0.00 | 52 | 1018.6 |
| 20260507102322 | 21 | 186 | 11.3 | 17.7 | 0.00 | 0.00 | 0.00 | 50 | 1018.6 |
| 20260507101559 | 21 | 203 | 8.0 | 17.7 | 0.00 | 0.00 | 0.00 | 50 | 1018.6 |
| 20260507101058 | 21 | 0 | 8.0 | 22.5 | 0.00 | 0.00 | 0.00 | 49 | 1018.7 |
| 20260507100824 | 21 | 185 | 9.7 | 22.5 | 0.00 | 0.00 | 0.00 | 51 | 1018.8 |
| 20260507100058 | 21 | 165 | 8.0 | 17.7 | 0.00 | 0.00 | 0.00 | 51 | 1018.8 |
| 20260507095559 | 21 | 228 | 9.7 | 17.7 | 0.00 | 0.00 | 0.00 | 50 | 1018.9 |
| 20260507095328 | 21 | 221 | 8.0 | 19.3 | 0.00 | 0.00 | 0.00 | 49 | 1019.0 |
| 20260507094559 | 21 | 186 | 8.0 | 19.3 | 0.00 | 0.00 | 0.00 | 50 | 1019.1 |
| 20260507094058 | 21 | 0 | 8.0 | 17.7 | 0.00 | 0.00 | 0.00 | 51 | 1019.1 |
| 20260507093817 | 21 | 0 | 9.7 | 19.3 | 0.00 | 0.00 | 0.00 | 48 | 1019.0 |
| 20260507093057 | 21 | 0 | 11.3 | 19.3 | 0.00 | 0.00 | 0.00 | 48 | 1019.1 |
| 20260507092558 | 21 | 0 | 9.7 | 19.3 | 0.00 | 0.00 | 0.00 | 51 | 1019.1 |
| 20260507092058 | 20 | 197 | 8.0 | 17.7 | 0.00 | 0.00 | 0.00 | 52 | 1019.2 |
| 20260507091558 | 20 | 0 | 12.9 | 19.3 | 0.00 | 0.00 | 0.00 | 52 | 1019.2 |
| 20260507091057 | 20 | 0 | 11.3 | 19.3 | 0.00 | 0.00 | 0.00 | 53 | 1019.4 |
| 20260507090557 | 20 | 0 | 9.7 | 19.3 | 0.00 | 0.00 | 0.00 | 53 | 1019.4 |
| 20260507090326 | 20 | 0 | 11.3 | 17.7 | 0.00 | 0.00 | 0.00 | 54 | 1019.4 |
| 20260507085558 | 20 | 0 | 9.7 | 17.7 | 0.00 | 0.00 | 0.00 | 54 | 1019.4 |
| 20260507085057 | 20 | 0 | 9.7 | 17.7 | 0.00 | 0.00 | 0.00 | 54 | 1019.3 |
| 20260507084558 | 20 | 162 | 11.3 | 17.7 | 0.00 | 0.00 | 0.00 | 54 | 1019.3 |
| 20260507084046 | 20 | 200 | 8.0 | 17.7 | 0.00 | 0.00 | 0.00 | 55 | 1019.3 |
| 20260507083543 | 21 | 176 | 6.4 | 19.3 | 0.00 | 0.00 | 0.00 | 55 | 1019.2 |
| 20260507083314 | 20 | 231 | 8.0 | 19.3 | 0.00 | 0.00 | 0.00 | 56 | 1019.2 |
| 20260507082541 | 20 | 210 | 4.8 | 19.3 | 0.00 | 0.00 | 0.00 | 55 | 1019.2 |
| 20260507082309 | 20 | 0 | 8.0 | 17.7 | 0.00 | 0.00 | 0.00 | 55 | 1019.0 |
| 20260507081539 | 20 | 192 | 6.4 | 17.7 | 0.00 | 0.00 | 0.00 | 55 | 1018.9 |
| 20260507081303 | 20 | 169 | 8.0 | 17.7 | 0.00 | 0.00 | 0.00 | 56 | 1018.9 |
| 20260507080752 | 20 | 204 | 6.4 | 17.7 | 0.00 | 0.00 | 0.00 | 56 | 1018.9 |
| 20260507080036 | 20 | 0 | 8.0 | 17.7 | 0.00 | 0.00 | 0.00 | 56 | 1018.9 |
| 20260507075533 | 20 | 0 | 8.0 | 17.7 | 0.00 | 0.00 | 0.00 | 55 | 1019.0 |
| 20260507075031 | 20 | 0 | 8.0 | 17.7 | 0.00 | 0.00 | 0.00 | 55 | 1018.9 |
| 20260507074531 | 20 | 0 | 8.0 | 17.7 | 0.00 | 0.00 | 0.00 | 56 | 1019.0 |
| 20260507074032 | 20 | 0 | 9.7 | 17.7 | 0.00 | 0.00 | 0.00 | 56 | 1019.1 |
| 20260507073536 | 20 | 0 | 9.7 | 17.7 | 0.00 | 0.00 | 0.00 | 56 | 1019.0 |
| 20260507073024 | 20 | 0 | 8.0 | 17.7 | 0.00 | 0.00 | 0.00 | 57 | 1019.0 |
| 20260507072523 | 20 | 220 | 8.0 | 17.7 | 0.00 | 0.00 | 0.00 | 57 | 1018.8 |
| 20260507072024 | 20 | 0 | 9.7 | 17.7 | 0.00 | 0.00 | 0.00 | 57 | 1018.8 |
| 20260507071514 | 20 | 0 | 8.0 | 17.7 | 0.00 | 0.00 | 0.00 | 57 | 1018.8 |
| 20260507071014 | 20 | 0 | 6.4 | 16.1 | 0.00 | 0.00 | 0.00 | 57 | 1018.7 |
| 20260507070732 | 20 | 0 | 8.0 | 16.1 | 0.00 | 0.00 | 0.00 | 57 | 1018.6 |
| 20260507070014 | 20 | 179 | 9.7 | 17.7 | 0.00 | 0.00 | 0.00 | 56 | 1018.5 |
| 20260507065511 | 20 | 195 | 6.4 | 17.7 | 0.00 | 0.00 | 0.00 | 56 | 1018.3 |
| 20260507065013 | 20 | 0 | 6.4 | 16.1 | 0.00 | 0.00 | 0.00 | 56 | 1018.3 |
| 20260507064512 | 20 | 237 | 9.7 | 11.3 | 0.00 | 0.00 | 0.00 | 56 | 1018.0 |
| 20260507064009 | 20 | 179 | 6.4 | 16.1 | 0.00 | 0.00 | 0.00 | 56 | 1018.0 |
| 20260507063507 | 20 | 179 | 6.4 | 16.1 | 0.00 | 0.00 | 0.00 | 56 | 1018.0 |
| 20260507063006 | 20 | 196 | 6.4 | 14.5 | 0.00 | 0.00 | 0.00 | 55 | 1018.0 |
| 20260507062505 | 20 | 196 | 6.4 | 14.5 | 0.00 | 0.00 | 0.00 | 55 | 1018.0 |
| 20260507062003 | 20 | 180 | 3.2 | 11.3 | 0.00 | 0.00 | 0.00 | 56 | 1018.0 |
| 20260507061500 | 20 | 0 | 6.4 | 11.3 | 0.00 | 0.00 | 0.00 | 56 | 1017.9 |
| 20260507061000 | 20 | 186 | 3.2 | 9.7 | 0.00 | 0.00 | 0.00 | 56 | 1017.8 |
| 20260507060723 | 20 | 220 | 6.4 | 9.7 | 0.00 | 0.00 | 0.00 | 56 | 1017.9 |
| 20260507055958 | 19 | 226 | 3.2 | 11.3 | 0.00 | 0.00 | 0.00 | 56 | 1018.0 |
| 20260507055456 | 20 | 186 | 3.2 | 11.3 | 0.00 | 0.00 | 0.00 | 56 | 1017.9 |
| 20260507054953 | 19 | 231 | 3.2 | 9.7 | 0.00 | 0.00 | 0.00 | 56 | 1017.9 |
| 20260507054454 | 19 | 188 | 1.6 | 8.0 | 0.00 | 0.00 | 0.00 | 56 | 1017.9 |
| 20260507053953 | 18 | 0 | 4.8 | 6.4 | 0.00 | 0.00 | 0.00 | 56 | 1017.9 |
| 20260507053454 | 18 | 200 | 3.2 | 6.4 | 0.00 | 0.00 | 0.00 | 56 | 1018.0 |
| 20260507052953 | 18 | 182 | 1.6 | 4.8 | 0.00 | 0.00 | 0.00 | 56 | 1018.0 |
| 20260507052943 | 17 | 169 | 3.2 | 8.0 | 0.00 | 0.00 | 0.00 | 57 | 1017.9 |
| 20260507051953 | 16 | 180 | 0.0 | 8.0 | 0.00 | 0.00 | 0.00 | 57 | 1018.0 |
| 20260507051451 | 16 | 185 | 3.2 | 6.4 | 0.00 | 0.00 | 0.00 | 58 | 1017.9 |
| 20260507050952 | 16 | 31 | 0.0 | 0.0 | 0.00 | 0.00 | 0.00 | 60 | 1017.8 |
| 20260507050453 | 15 | 4 | 0.0 | 3.2 | 0.00 | 0.00 | 0.00 | 61 | 1017.7 |
| 20260507045952 | 15 | 4 | 1.6 | 4.8 | 0.00 | 0.00 | 0.00 | 61 | 1017.7 |
| 20260507045451 | 15 | 0 | 3.2 | 4.8 | 0.00 | 0.00 | 0.00 | 61 | 1017.7 |
| 20260507044951 | 14 | 0 | 3.2 | 6.4 | 0.00 | 0.00 | 0.00 | 62 | 1017.7 |
| 20260507044715 | 13 | 0 | 3.2 | 8.0 | 0.00 | 0.00 | 0.00 | 62 | 1017.6 |
| 20260507043951 | 13 | 338 | 4.8 | 9.7 | 0.00 | 0.00 | 0.00 | 63 | 1017.7 |
| 20260507043719 | 13 | 0 | 8.0 | 9.7 | 0.00 | 0.00 | 0.00 | 64 | 1017.6 |
| 20260507042952 | 13 | 0 | 4.8 | 8.0 | 0.00 | 0.00 | 0.00 | 64 | 1017.6 |
| 20260507042452 | 13 | 343 | 3.2 | 6.4 | 0.00 | 0.00 | 0.00 | 64 | 1017.7 |
| 20260507041952 | 13 | 316 | 3.2 | 4.8 | 0.00 | 0.00 | 0.00 | 64 | 1017.7 |
| 20260507041451 | 13 | 319 | 3.2 | 6.4 | 0.00 | 0.00 | 0.00 | 64 | 1017.6 |
| 20260507040950 | 13 | 316 | 4.8 | 6.4 | 0.00 | 0.00 | 0.00 | 64 | 1017.6 |
| 20260507040450 | 12 | 0 | 3.2 | 4.8 | 0.00 | 0.00 | 0.00 | 63 | 1017.6 |
| 20260507035950 | 12 | 317 | 3.2 | 4.8 | 0.00 | 0.00 | 0.00 | 64 | 1017.7 |
| 20260507035450 | 12 | 321 | 1.6 | 4.8 | 0.00 | 0.00 | 0.00 | 63 | 1017.7 |
| 20260507034950 | 12 | 323 | 0.0 | 4.8 | 0.00 | 0.00 | 0.00 | 63 | 1017.6 |
| 20260507034451 | 12 | 0 | 3.2 | 4.8 | 0.00 | 0.00 | 0.00 | 63 | 1017.6 |
| 20260507034213 | 12 | 303 | 3.2 | 4.8 | 0.00 | 0.00 | 0.00 | 63 | 1017.4 |
| 20260507033449 | 12 | 310 | 0.0 | 4.8 | 0.00 | 0.00 | 0.00 | 63 | 1017.4 |
| 20260507032949 | 12 | 306 | 1.6 | 4.8 | 0.00 | 0.00 | 0.00 | 63 | 1017.3 |
| 20260507032449 | 12 | 300 | 3.2 | 4.8 | 0.00 | 0.00 | 0.00 | 63 | 1017.2 |
| 20260507031950 | 12 | 313 | 0.0 | 4.8 | 0.00 | 0.00 | 0.00 | 63 | 1017.2 |
| 20260507031450 | 12 | 312 | 3.2 | 6.4 | 0.00 | 0.00 | 0.00 | 63 | 1017.3 |
| 20260507030950 | 11 | 0 | 4.8 | 6.4 | 0.00 | 0.00 | 0.00 | 62 | 1017.1 |
| 20260507030449 | 11 | 312 | 3.2 | 4.8 | 0.00 | 0.00 | 0.00 | 62 | 1017.0 |
| 20260507030211 | 12 | 316 | 1.6 | 4.8 | 0.00 | 0.00 | 0.00 | 62 | 1017.0 |
| 20260507025449 | 11 | 317 | 3.2 | 4.8 | 0.00 | 0.00 | 0.00 | 62 | 1017.0 |
| 20260507024950 | 12 | 327 | 1.6 | 3.2 | 0.00 | 0.00 | 0.00 | 62 | 1016.9 |
| 20260507024713 | 12 | 327 | 0.0 | 4.8 | 0.00 | 0.00 | 0.00 | 62 | 1016.7 |
| 20260507024429 | 12 | 323 | 3.2 | 6.4 | 0.00 | 0.00 | 0.00 | 62 | 1016.6 |
| 20260507023448 | 12 | 0 | 4.8 | 6.4 | 0.00 | 0.00 | 0.00 | 62 | 1016.7 |
| 20260507022948 | 12 | 319 | 3.2 | 6.4 | 0.00 | 0.00 | 0.00 | 62 | 1016.6 |
| 20260507022710 | 12 | 0 | 3.2 | 6.4 | 0.00 | 0.00 | 0.00 | 62 | 1016.6 |
| 20260507021950 | 12 | 306 | 3.2 | 6.4 | 0.00 | 0.00 | 0.00 | 62 | 1016.7 |
| 20260507021449 | 12 | 334 | 1.6 | 4.8 | 0.00 | 0.00 | 0.00 | 62 | 1016.6 |
| 20260507021211 | 12 | 0 | 3.2 | 6.4 | 0.00 | 0.00 | 0.00 | 62 | 1016.7 |
| 20260507020449 | 12 | 0 | 4.8 | 6.4 | 0.00 | 0.00 | 0.00 | 62 | 1016.7 |
| 20260507015948 | 12 | 331 | 1.6 | 6.4 | 0.00 | 0.00 | 0.00 | 62 | 1016.7 |
| 20260507015448 | 12 | 0 | 3.2 | 6.4 | 0.00 | 0.00 | 0.00 | 62 | 1016.7 |
| 20260507014948 | 12 | 305 | 4.8 | 6.4 | 0.00 | 0.00 | 0.00 | 62 | 1016.6 |
| 20260507014448 | 11 | 314 | 4.8 | 6.4 | 0.00 | 0.00 | 0.00 | 62 | 1016.6 |
| 20260507014433 | 11 | 0 | 3.2 | 6.4 | 0.00 | 0.00 | 0.00 | 62 | 1016.8 |
| 20260507013448 | 11 | 0 | 4.8 | 6.4 | 0.00 | 0.00 | 0.00 | 62 | 1016.7 |
| 20260507012948 | 11 | 0 | 4.8 | 6.4 | 0.00 | 0.00 | 0.00 | 62 | 1016.6 |
| 20260507012719 | 11 | 306 | 3.2 | 4.8 | 0.00 | 0.00 | 0.00 | 62 | 1016.7 |
| 20260507012212 | 11 | 306 | 3.2 | 4.8 | 0.00 | 0.00 | 0.00 | 63 | 1016.7 |
| 20260507011710 | 12 | 0 | 3.2 | 6.4 | 0.00 | 0.00 | 0.00 | 63 | 1016.6 |
| 20260507010946 | 12 | 306 | 3.2 | 6.4 | 0.00 | 0.00 | 0.00 | 62 | 1016.5 |
| 20260507010447 | 12 | 321 | 3.2 | 6.4 | 0.00 | 0.00 | 0.00 | 63 | 1016.5 |
| 20260507005946 | 12 | 316 | 4.8 | 6.4 | 0.00 | 0.00 | 0.00 | 63 | 1016.5 |
| 20260507005446 | 12 | 0 | 4.8 | 6.4 | 0.00 | 0.00 | 0.00 | 62 | 1016.5 |
| 20260507004947 | 12 | 0 | 3.2 | 4.8 | 0.00 | 0.00 | 0.00 | 63 | 1016.5 |
| 20260507004446 | 12 | 334 | 1.6 | 6.4 | 0.00 | 0.00 | 0.00 | 63 | 1016.5 |
| 20260507003945 | 13 | 334 | 3.2 | 8.0 | 0.00 | 0.00 | 0.00 | 63 | 1016.5 |
| 20260507003445 | 13 | 0 | 6.4 | 8.0 | 0.00 | 0.00 | 0.00 | 63 | 1016.5 |
| 20260507002946 | 13 | 0 | 4.8 | 6.4 | 0.00 | 0.00 | 0.00 | 63 | 1016.3 |
| 20260507002705 | 13 | 0 | 4.8 | 6.4 | 0.00 | 0.00 | 0.00 | 63 | 1016.4 |
| 20260507002212 | 13 | 316 | 3.2 | 8.0 | 0.00 | 0.00 | 0.00 | 63 | 1016.5 |
| 20260507001719 | 13 | 0 | 4.8 | 8.0 | 0.00 | 0.00 | 0.00 | 63 | 1016.6 |
| 20260507001213 | 13 | 0 | 4.8 | 6.4 | 0.00 | 0.00 | 0.00 | 63 | 1016.5 |
| 20260507000445 | 13 | 0 | 4.8 | 6.4 | 0.00 | 0.00 | 0.00 | 63 | 1016.5 |
| 20260506235944 | 13 | 0 | 4.8 | 6.4 | 0.00 | 0.00 | 0.00 | 63 | 1016.5 |
| 20260506235445 | 13 | 0 | 3.2 | 6.4 | 0.00 | 0.00 | 0.00 | 63 | 1016.6 |
| 20260506234945 | 13 | 310 | 4.8 | 6.4 | 0.00 | 0.00 | 0.00 | 63 | 1016.5 |
| 20260506234444 | 13 | 320 | 4.8 | 8.0 | 0.00 | 0.00 | 0.00 | 63 | 1016.6 |
| 20260506233944 | 13 | 313 | 4.8 | 8.0 | 0.00 | 0.00 | 0.00 | 63 | 1016.7 |
| 20260506233445 | 13 | 0 | 4.8 | 8.0 | 0.00 | 0.00 | 0.00 | 63 | 1016.8 |
| 20260506233210 | 13 | 317 | 3.2 | 4.8 | 0.00 | 0.00 | 0.00 | 63 | 1016.9 |
| 20260506232444 | 13 | 321 | 4.8 | 4.8 | 0.00 | 0.00 | 0.00 | 63 | 1016.9 |
| 20260506231944 | 14 | 327 | 3.2 | 4.8 | 0.00 | 0.00 | 0.00 | 63 | 1016.9 |
| 20260506231444 | 13 | 316 | 0.0 | 0.0 | 0.00 | 0.00 | 0.00 | 63 | 1017.0 |
| 20260506230943 | 13 | 316 | 0.0 | 0.0 | 0.00 | 0.00 | 0.00 | 63 | 1017.0 |
| 20260506230444 | 14 | 316 | 0.0 | 3.2 | 0.00 | 0.00 | 0.00 | 63 | 1017.0 |
| 20260506225944 | 14 | 316 | 0.0 | 4.8 | 0.00 | 0.00 | 0.00 | 63 | 1017.0 |
| 20260506225443 | 14 | 316 | 3.2 | 4.8 | 0.00 | 0.00 | 0.00 | 63 | 1017.0 |
| 20260506224944 | 14 | 0 | 1.6 | 4.8 | 0.00 | 0.00 | 0.00 | 63 | 1017.2 |
| 20260506224445 | 14 | 290 | 3.2 | 4.8 | 0.00 | 0.00 | 0.00 | 63 | 1017.1 |
| 20260506223943 | 14 | 172 | 0.0 | 3.2 | 0.00 | 0.00 | 0.00 | 63 | 1017.3 |
| 20260506223444 | 14 | 172 | 1.6 | 3.2 | 0.00 | 0.00 | 0.00 | 63 | 1017.3 |
| 20260506222943 | 13 | 172 | 0.0 | 0.0 | 0.00 | 0.00 | 0.00 | 63 | 1017.3 |
| 20260506222442 | 13 | 172 | 0.0 | 0.0 | 0.00 | 0.00 | 0.00 | 63 | 1017.3 |
| 20260506221944 | 14 | 172 | 0.0 | 0.0 | 0.00 | 0.00 | 0.00 | 63 | 1017.3 |
| 20260506221441 | 14 | 172 | 0.0 | 0.0 | 0.00 | 0.00 | 0.00 | 63 | 1017.4 |
| 20260506220941 | 14 | 172 | 0.0 | 0.0 | 0.00 | 0.00 | 0.00 | 63 | 1017.5 |
| 20260506220440 | 14 | 171 | 0.0 | 0.0 | 0.00 | 0.00 | 0.00 | 63 | 1017.5 |
| 20260506215941 | 14 | 171 | 0.0 | 0.0 | 0.00 | 0.00 | 0.00 | 63 | 1017.4 |
| 20260506215441 | 14 | 172 | 0.0 | 0.0 | 0.00 | 0.00 | 0.00 | 63 | 1017.4 |
| 20260506214940 | 14 | 172 | 0.0 | 0.0 | 0.00 | 0.00 | 0.00 | 63 | 1017.4 |
| 20260506214709 | 14 | 172 | 0.0 | 0.0 | 0.00 | 0.00 | 0.00 | 63 | 1017.4 |
| 20260506213941 | 14 | 172 | 0.0 | 0.0 | 0.00 | 0.00 | 0.00 | 63 | 1017.5 |
| 20260506213440 | 14 | 172 | 0.0 | 0.0 | 0.00 | 0.00 | 0.00 | 62 | 1017.4 |
| 20260506212939 | 14 | 172 | 0.0 | 0.0 | 0.00 | 0.00 | 0.00 | 62 | 1017.5 |
| 20260506212440 | 15 | 172 | 0.0 | 0.0 | 0.00 | 0.00 | 0.00 | 63 | 1017.5 |
| 20260506212207 | 15 | 172 | 0.0 | 0.0 | 0.00 | 0.00 | 0.00 | 63 | 1017.6 |
| 20260506211440 | 15 | 171 | 0.0 | 0.0 | 0.00 | 0.00 | 0.00 | 63 | 1017.6 |
| 20260506210939 | 15 | 171 | 0.0 | 0.0 | 0.00 | 0.00 | 0.00 | 63 | 1017.5 |
| 20260506210440 | 15 | 171 | 0.0 | 0.0 | 0.00 | 0.00 | 0.00 | 63 | 1017.5 |
| 20260506205940 | 15 | 171 | 0.0 | 0.0 | 0.00 | 0.00 | 0.00 | 62 | 1017.6 |
| 20260506205439 | 15 | 171 | 0.0 | 0.0 | 0.00 | 0.00 | 0.00 | 62 | 1017.6 |
| 20260506204940 | 15 | 171 | 0.0 | 0.0 | 0.00 | 0.00 | 0.00 | 62 | 1017.5 |
| 20260506204439 | 15 | 171 | 0.0 | 0.0 | 0.00 | 0.00 | 0.00 | 62 | 1017.6 |
| 20260506203939 | 15 | 171 | 0.0 | 0.0 | 0.00 | 0.00 | 0.00 | 62 | 1017.5 |
| 20260506203700 | 15 | 171 | 0.0 | 0.0 | 0.00 | 0.00 | 0.00 | 62 | 1017.5 |
| 20260506203207 | 15 | 171 | 0.0 | 0.0 | 0.00 | 0.00 | 0.00 | 62 | 1017.4 |
| 20260506202441 | 15 | 171 | 0.0 | 0.0 | 0.00 | 0.00 | 0.00 | 62 | 1017.5 |
| 20260506202436 | 15 | 171 | 0.0 | 0.0 | 0.00 | 0.00 | 0.00 | 62 | 1017.4 |
| 20260506201440 | 15 | 171 | 0.0 | 0.0 | 0.00 | 0.00 | 0.00 | 62 | 1017.5 |
| 20260506200938 | 15 | 171 | 0.0 | 0.0 | 0.00 | 0.00 | 0.00 | 62 | 1017.4 |
| 20260506200437 | 15 | 171 | 0.0 | 0.0 | 0.00 | 0.00 | 0.00 | 62 | 1017.3 |
| 20260506195938 | 16 | 171 | 0.0 | 0.0 | 0.00 | 0.00 | 0.00 | 62 | 1017.4 |
| 20260506195437 | 16 | 171 | 0.0 | 1.6 | 0.00 | 0.00 | 0.00 | 62 | 1017.2 |
| 20260506195203 | 16 | 171 | 0.0 | 3.2 | 0.00 | 0.00 | 0.00 | 62 | 1017.3 |
| 20260506194439 | 16 | 171 | 1.6 | 3.2 | 0.00 | 0.00 | 0.00 | 62 | 1017.3 |
| 20260506193939 | 16 | 171 | 0.0 | 4.8 | 0.00 | 0.00 | 0.00 | 62 | 1017.2 |
| 20260506193437 | 16 | 169 | 1.6 | 4.8 | 0.00 | 0.00 | 0.00 | 62 | 1017.2 |
| 20260506192938 | 16 | 172 | 0.0 | 4.8 | 0.00 | 0.00 | 0.00 | 62 | 1017.2 |
| 20260506192436 | 17 | 171 | 1.6 | 4.8 | 0.00 | 0.00 | 0.00 | 62 | 1017.3 |
| 20260506191937 | 16 | 171 | 0.0 | 1.6 | 0.00 | 0.00 | 0.00 | 62 | 1017.2 |
| 20260506191436 | 17 | 172 | 0.0 | 1.6 | 0.00 | 0.00 | 0.00 | 62 | 1017.1 |
| 20260506190936 | 17 | 172 | 0.0 | 0.0 | 0.00 | 0.00 | 0.00 | 61 | 1017.1 |
| 20260506190437 | 17 | 172 | 0.0 | 0.0 | 0.00 | 0.00 | 0.00 | 62 | 1017.0 |
| 20260506185936 | 17 | 172 | 0.0 | 3.2 | 0.00 | 0.00 | 0.00 | 62 | 1017.0 |
| 20260506185437 | 17 | 172 | 0.0 | 4.8 | 0.00 | 0.00 | 0.00 | 61 | 1016.9 |
| 20260506184936 | 18 | 188 | 0.0 | 4.8 | 0.00 | 0.00 | 0.00 | 61 | 1016.9 |
| 20260506184436 | 18 | 0 | 0.0 | 3.2 | 0.00 | 0.00 | 0.00 | 61 | 1016.7 |
| 20260506183933 | 18 | 179 | 0.0 | 3.2 | 0.00 | 0.00 | 0.00 | 61 | 1016.7 |
| 20260506183433 | 18 | 179 | 1.6 | 6.4 | 0.00 | 0.00 | 0.00 | 61 | 1016.6 |
| 20260506182932 | 18 | 185 | 1.6 | 6.4 | 0.00 | 0.00 | 0.00 | 61 | 1016.5 |
| 20260506182433 | 18 | 185 | 3.2 | 6.4 | 0.00 | 0.00 | 0.00 | 61 | 1016.4 |
| 20260506181933 | 18 | 175 | 1.6 | 4.8 | 0.00 | 0.00 | 0.00 | 60 | 1016.4 |
| 20260506181432 | 18 | 171 | 0.0 | 6.4 | 0.00 | 0.00 | 0.00 | 60 | 1016.3 |
| 20260506181420 | 18 | 172 | 1.6 | 6.4 | 0.00 | 0.00 | 0.00 | 59 | 1016.2 |
| 20260506180653 | 18 | 190 | 1.6 | 4.8 | 0.00 | 0.00 | 0.00 | 59 | 1016.1 |
| 20260506175933 | 18 | 192 | 0.0 | 6.4 | 0.00 | 0.00 | 0.00 | 59 | 1016.1 |
| 20260506175432 | 19 | 196 | 3.2 | 8.0 | 0.00 | 0.00 | 0.00 | 59 | 1016.0 |
| 20260506174934 | 19 | 221 | 1.6 | 8.0 | 0.00 | 0.00 | 0.00 | 59 | 1016.0 |
| 20260506174704 | 19 | 230 | 1.6 | 4.8 | 0.00 | 0.00 | 0.00 | 58 | 1016.0 |
| 20260506173909 | 19 | 189 | 0.0 | 4.8 | 0.00 | 0.00 | 0.00 | 58 | 1015.8 |
| 20260506173634 | 19 | 192 | 3.2 | 4.8 | 0.00 | 0.00 | 0.00 | 58 | 1015.9 |
| 20260506172905 | 19 | 190 | 1.6 | 4.8 | 0.00 | 0.00 | 0.00 | 57 | 1015.9 |
| 20260506172405 | 18 | 202 | 1.6 | 4.8 | 0.00 | 0.00 | 0.00 | 57 | 1015.9 |
| 20260506171906 | 18 | 203 | 1.6 | 6.4 | 0.00 | 0.00 | 0.00 | 56 | 1015.9 |
| 20260506171405 | 18 | 230 | 1.6 | 8.0 | 0.00 | 0.00 | 0.00 | 56 | 1015.8 |
| 20260506170858 | 19 | 214 | 6.4 | 9.7 | 0.00 | 0.00 | 0.00 | 55 | 1015.8 |
| 20260506170358 | 19 | 244 | 8.0 | 9.7 | 0.00 | 0.00 | 0.00 | 55 | 1015.8 |